Time,TemperatureF,DewpointF,PressureIn,WindDirection,WindDirectionDegrees,WindSpeedMPH,WindSpeedGustMPH,Humidity,HourlyPrecipIn,Conditions,Clouds,dailyrainin,SoftwareType,DateUTC
2013-09-06 00:11:00,60.0,59.0,29.97,SW,228,0.0,0.0,98,0.25,,,2.08,,2013-09-06 07:11:00,
2013-09-06 00:23:00,60.0,59.0,29.97,SW,236,0.0,1.0,98,0.31,,,2.18,,2013-09-06 07:23:00,
2013-09-06 00:42:00,60.0,59.0,29.98,WSW,253,0.0,1.0,98,0.32,,,2.24,,2013-09-06 07:42:00,
2013-09-06 00:52:00,60.0,59.0,29.97,ESE,110,0.0,0.0,98,0.32,,,2.31,,2013-09-06 07:52:00,
2013-09-06 01:12:00,60.0,59.0,29.98,NE,34,0.0,1.0,98,0.30,,,2.38,,2013-09-06 08:12:00,
2013-09-06 01:22:00,60.0,59.0,29.99,ENE,74,0.0,4.0,98,0.26,,,2.44,,2013-09-06 08:22:00,
2013-09-06 01:42:00,59.0,58.0,29.99,East,88,0.0,0.0,98,0.40,,,2.64,,2013-09-06 08:42:00,
2013-09-06 01:52:00,59.0,58.0,29.98,WSW,238,0.0,1.0,98,0.37,,,2.69,,2013-09-06 08:52:00,
2013-09-06 02:11:00,58.0,57.0,29.99,NE,43,0.0,1.0,98,0.36,,,2.75,,2013-09-06 09:11:00,
2013-09-06 02:22:00,58.0,57.0,29.98,NE,42,0.0,0.0,98,0.35,,,2.79,,2013-09-06 09:22:00,
2013-09-06 02:53:00,58.0,57.0,29.98,NE,42,0.0,0.0,98,0.22,,,2.91,,2013-09-06 09:53:00,
2013-09-06 03:12:00,58.0,57.0,29.97,West,262,0.0,0.0,98,0.16,,,2.92,,2013-09-06 10:12:00,
2013-09-06 03:23:00,58.0,57.0,29.96,West,262,0.0,0.0,98,0.15,,,2.94,,2013-09-06 10:23:00,
2013-09-06 03:42:00,58.0,57.0,29.97,WNW,285,0.0,0.0,98,0.11,,,2.93,,2013-09-06 10:42:00,
2013-09-06 03:53:00,58.0,57.0,29.97,WNW,284,0.0,0.0,98,0.08,,,2.98,,2013-09-06 10:53:00,
2013-09-06 04:11:00,58.0,57.0,29.97,North,359,0.0,0.0,98,0.11,,,3.01,,2013-09-06 11:11:00,
2013-09-06 04:22:00,58.0,57.0,29.97,West,273,0.0,0.0,98,0.13,,,3.05,,2013-09-06 11:22:00,
2013-09-06 04:42:00,58.0,57.0,29.97,West,273,0.0,0.0,98,0.14,,,3.06,,2013-09-06 11:42:00,
2013-09-06 04:52:00,58.0,57.0,29.98,NW,316,0.0,0.0,98,0.12,,,3.09,,2013-09-06 11:52:00,
2013-09-06 05:12:00,58.0,57.0,29.97,NW,326,0.0,0.0,98,0.13,,,3.13,,2013-09-06 12:12:00,
2013-09-06 05:21:00,58.0,57.0,29.97,NW,325,0.0,0.0,98,0.11,,,3.15,,2013-09-06 12:21:00,
2013-09-06 05:42:00,58.0,57.0,29.97,NW,325,0.0,0.0,98,0.11,,,3.16,,2013-09-06 12:42:00,
2013-09-06 05:52:00,58.0,58.0,29.98,NW,325,0.0,0.0,99,0.11,,,3.19,,2013-09-06 12:52:00,
2013-09-06 06:11:00,58.0,57.0,29.98,NW,325,0.0,0.0,98,0.10,,,3.22,,2013-09-06 13:11:00,
2013-09-06 06:22:00,58.0,58.0,29.98,NW,325,0.0,0.0,99,0.13,,,3.27,,2013-09-06 13:22:00,
2013-09-06 06:42:00,58.0,58.0,29.98,NW,324,0.0,0.0,99,0.17,,,3.33,,2013-09-06 13:42:00,
2013-09-06 06:52:00,58.0,58.0,29.98,NW,324,0.0,0.0,99,0.19,,,3.38,,2013-09-06 13:52:00,
2013-09-06 07:11:00,58.0,58.0,29.99,NW,324,0.0,0.0,99,0.18,,,3.41,,2013-09-06 14:11:00,
2013-09-06 07:22:00,58.0,58.0,29.99,NW,324,0.0,0.0,99,0.14,,,3.41,,2013-09-06 14:22:00,
2013-09-06 07:52:00,58.0,58.0,30.00,North,2,0.0,0.0,99,0.06,,,3.45,,2013-09-06 14:52:00,
2013-09-06 08:11:00,58.0,58.0,30.01,North,2,0.0,0.0,99,0.09,,,3.50,,2013-09-06 15:11:00,
2013-09-06 08:22:00,59.0,59.0,30.01,North,2,0.0,0.0,99,0.12,,,3.53,,2013-09-06 15:22:00,
2013-09-06 08:53:00,59.0,59.0,30.03,North,2,0.0,0.0,99,0.11,,,3.54,,2013-09-06 15:53:00,
2013-09-06 09:13:00,59.0,59.0,30.02,NW,304,0.0,0.0,99,0.09,,,3.57,,2013-09-06 16:13:00,
2013-09-06 09:24:00,59.0,59.0,30.03,WSW,238,0.0,0.0,99,0.07,,,3.58,,2013-09-06 16:24:00,
2013-09-06 09:42:00,59.0,59.0,30.03,WSW,238,0.0,0.0,99,0.05,,,3.42,,2013-09-06 16:42:00,
2013-09-06 09:53:00,59.0,59.0,30.04,NNE,12,0.0,0.0,99,0.04,,,3.42,,2013-09-06 16:53:00,
2013-09-06 10:13:00,59.0,59.0,30.04,NNE,12,0.0,0.0,99,0.01,,,3.42,,2013-09-06 17:13:00,
2013-09-06 10:24:00,60.0,60.0,30.05,North,11,0.0,0.0,99,0.01,,,3.43,,2013-09-06 17:24:00,
2013-09-06 10:43:00,60.0,60.0,30.06,North,11,0.0,0.0,99,0.02,,,3.43,,2013-09-06 17:43:00,
2013-09-06 10:53:00,60.0,60.0,30.06,North,11,0.0,0.0,99,0.02,,,3.43,,2013-09-06 17:53:00,
2013-09-06 11:12:00,61.0,61.0,30.05,WSW,248,0.0,1.0,99,0.01,,,3.43,,2013-09-06 18:12:00,
2013-09-06 11:22:00,61.0,61.0,30.06,NE,34,0.0,0.0,99,0.01,,,3.43,,2013-09-06 18:22:00,
2013-09-06 11:42:00,62.0,61.0,30.06,WSW,245,0.0,0.0,98,0.00,,,3.43,,2013-09-06 18:42:00,
2013-09-06 11:52:00,62.0,61.0,30.07,WSW,245,0.0,0.0,98,0.00,,,3.43,,2013-09-06 18:52:00,
2013-09-06 12:11:00,63.0,62.0,30.06,SW,218,0.0,0.0,98,0.00,,,3.43,,2013-09-06 19:11:00,
2013-09-06 12:21:00,64.0,63.0,30.06,SW,216,0.0,0.0,96,0.00,,,3.43,,2013-09-06 19:21:00,
2013-09-06 12:42:00,63.0,62.0,30.06,WSW,254,0.0,0.0,96,0.00,,,3.43,,2013-09-06 19:42:00,
2013-09-06 12:52:00,64.0,63.0,30.06,WSW,254,0.0,0.0,95,0.00,,,3.43,,2013-09-06 19:52:00,
2013-09-06 13:11:00,65.0,63.0,30.06,WSW,255,0.0,0.0,92,0.00,,,3.43,,2013-09-06 20:11:00,
2013-09-06 13:23:00,66.0,62.0,30.07,WSW,248,0.0,4.0,88,0.00,,,3.43,,2013-09-06 20:23:00,
2013-09-06 13:42:00,65.0,62.0,30.08,SSW,209,0.0,1.0,90,0.00,,,3.43,,2013-09-06 20:42:00,
2013-09-06 13:52:00,65.0,63.0,30.08,SSW,209,0.0,0.0,92,0.00,,,3.43,,2013-09-06 20:52:00,
2013-09-06 14:12:00,65.0,62.0,30.08,SW,231,0.0,0.0,91,0.00,,,3.43,,2013-09-06 21:12:00,
2013-09-06 14:22:00,65.0,62.0,30.09,NW,321,0.0,0.0,91,0.00,,,3.43,,2013-09-06 21:22:00,
2013-09-06 14:54:00,63.0,61.0,30.09,South,182,0.0,1.0,93,0.00,,,3.43,,2013-09-06 21:54:00,
2013-09-06 15:13:00,64.0,62.0,30.08,South,183,0.0,4.0,93,0.00,,,3.43,,2013-09-06 22:13:00,
2013-09-06 15:23:00,64.0,61.0,30.08,WSW,249,0.0,2.0,91,0.00,,,3.43,,2013-09-06 22:23:00,
2013-09-06 15:53:00,64.0,62.0,30.09,East,101,0.0,0.0,92,0.00,,,3.43,,2013-09-06 22:53:00,
2013-09-06 16:12:00,65.0,62.0,30.09,WSW,247,0.0,1.0,90,0.00,,,3.43,,2013-09-06 23:12:00,
2013-09-06 16:23:00,64.0,62.0,30.09,WSW,238,0.0,0.0,92,0.00,,,3.43,,2013-09-06 23:23:00,
2013-09-06 16:52:00,65.0,62.0,30.09,SE,144,0.0,0.0,89,0.00,,,3.43,,2013-09-06 23:52:00,
2013-09-06 17:12:00,65.0,62.0,30.09,WSW,240,0.0,0.0,90,0.00,,,3.43,,2013-09-07 00:12:00,
2013-09-06 17:22:00,65.0,62.0,30.10,West,269,0.0,0.0,89,0.00,,,3.43,,2013-09-07 00:22:00,
2013-09-06 17:42:00,65.0,61.0,30.10,SW,226,0.0,2.0,88,0.00,,,3.43,,2013-09-07 00:42:00,
2013-09-06 17:52:00,65.0,62.0,30.10,WSW,244,0.0,2.0,89,0.00,,,3.43,,2013-09-07 00:52:00,
2013-09-06 18:12:00,65.0,62.0,30.09,SW,217,0.0,1.0,89,0.00,,,3.43,,2013-09-07 01:12:00,
2013-09-06 18:21:00,64.0,61.0,30.10,ESE,108,0.0,2.0,90,0.00,,,3.43,,2013-09-07 01:21:00,
2013-09-06 18:42:00,64.0,61.0,30.09,SE,126,0.0,0.0,91,0.00,,,3.43,,2013-09-07 01:42:00,
2013-09-06 18:53:00,64.0,62.0,30.10,WSW,247,0.0,0.0,92,0.00,,,3.43,,2013-09-07 01:53:00,
2013-09-06 19:12:00,63.0,61.0,30.10,SW,227,0.0,0.0,92,0.00,,,3.43,,2013-09-07 02:12:00,
2013-09-06 19:23:00,63.0,61.0,30.09,SE,138,0.0,0.0,93,0.00,,,3.01,,2013-09-07 02:23:00,
2013-09-06 19:42:00,62.0,60.0,30.09,SE,138,0.0,0.0,94,0.00,,,3.01,,2013-09-07 02:42:00,
2013-09-06 19:52:00,62.0,61.0,30.10,SE,139,0.0,0.0,95,0.00,,,3.01,,2013-09-07 02:52:00,
2013-09-06 20:11:00,62.0,61.0,30.10,SE,139,0.0,0.0,95,0.00,,,3.01,,2013-09-07 03:11:00,
2013-09-06 20:23:00,61.0,60.0,30.11,SE,139,0.0,0.0,96,0.00,,,2.60,,2013-09-07 03:23:00,
2013-09-06 20:55:00,60.0,59.0,30.11,SE,139,0.0,0.0,97,0.00,,,2.60,,2013-09-07 03:55:00,
2013-09-06 21:14:00,60.0,59.0,30.11,SE,139,0.0,0.0,97,0.00,,,2.60,,2013-09-07 04:14:00,
2013-09-06 21:23:00,60.0,59.0,30.11,SE,138,0.0,0.0,97,0.00,,,2.18,,2013-09-07 04:23:00,
2013-09-06 21:43:00,60.0,59.0,30.12,SE,138,0.0,0.0,97,0.00,,,2.18,,2013-09-07 04:43:00,
2013-09-06 21:54:00,59.0,58.0,30.11,SE,138,0.0,0.0,98,0.00,,,2.18,,2013-09-07 04:54:00,
2013-09-06 22:13:00,59.0,58.0,30.11,SE,138,0.0,0.0,98,0.00,,,2.18,,2013-09-07 05:13:00,
2013-09-06 22:23:00,59.0,58.0,30.12,SE,138,0.0,0.0,98,0.00,,,2.00,,2013-09-07 05:23:00,
2013-09-06 22:52:00,59.0,58.0,30.12,SE,138,0.0,0.0,98,0.00,,,2.00,,2013-09-07 05:52:00,
2013-09-06 23:13:00,59.0,58.0,30.12,SE,138,0.0,0.0,98,0.00,,,2.00,,2013-09-07 06:13:00,
2013-09-06 23:21:00,59.0,58.0,30.12,SE,138,0.0,0.0,98,0.00,,,1.79,,2013-09-07 06:21:00,
2013-09-06 23:42:00,59.0,58.0,30.12,SE,138,0.0,0.0,98,0.00,,,1.79,,2013-09-07 06:42:00,
2013-09-06 23:52:00,58.0,57.0,30.12,SE,138,0.0,0.0,98,0.00,,,1.79,,2013-09-07 06:52:00,